User: anonymous   Login
Location: Unspecified
(0.0000°N, 0.0000°E)
Time: 18:10:10
(UTC+00:00)
Language:

STARLINK-31016 - Orbit

View from above orbital plane
View from above orbital plane
View from above satellite
View from above satellite

Ground track
Ground track

The orbit is defined by the following mean orbital elements,

1 58548U          26145.20743041 +.00000000 +00000-0 -26409-4 0 00008
2 58548  53.1601  67.0611 0001195  85.9441 274.1696 15.30184265    06
Epoch (UTC): 25 May 2026 04:58:41
Eccentricity: 0.0001195
inclination: 53.1601°
perigee height: 474 km
apogee height: 476 km
right ascension of ascending node: 67.0611°
argument of perigee: 85.9441°
revolutions per day: 15.30184265
mean anomaly at epoch: 274.1696°

The dashed part of the orbit path shows where the satellite is in the earth's shadow,  

DLR